865  
ASUS46 KPDT 261525  
RWRPDT  
PENDLETON REGIONAL WEATHER ROUNDUP  
NATIONAL WEATHER SERVICE PENDLETON OREGON  
800 AM PDT WED APR 26 2017  
 
NOTE: FAIR INDICATES FEW OR NO CLOUDS BELOW 12,000 FEET WITH NO  
SIGNIFICANT WEATHER AND/OR S TO VISIBILITY
.  
 
# INDICATES UNOFFICIAL STATION AND DATA  
 
WAZ520-261610-  
EAST SLOPES OF WASHINGTON CASCADES  
 
CITY SKY/WX TMP DP RH WIND PRES REMARKS
 
#CLE ELUM HS N/A 43 36 76 CALM 29.72R  
#CLE ELUM LAKE N/A 39 35 85 CALM 29.73R  
#GLENWOOD N/A 44 39 82 S6 29.78R  
#MANASTASH CYN N/A 34 34 100 CALM 29.74R  
#NELSON 3SW N/A 37 36 96 CALM 29.96R  
#NILE N/A 37 35 92 CALM 29.04R  
#TEANAWAY 4NE N/A 41 41 100 CALM N/A  
#TROUT LAKE 1NE N/A 43 39 86 W6 29.81R  
#TROUT LAKE 1E N/A 42 40 93 CALM 29.83R  

 
 
WAZ521-261610-  
SIMCOE HIGHLANDS  
 
CITY SKY/WX TMP DP RH WIND PRES REMARKS
 
#BICKLETON HS N/A 42 42 100 SW9 29.41R  
#CENTERVILLE 1SWN/A 44 39 82 W15 29.78R WCI 37  
#GOLDENDALE 1NE N/A 46 39 76 SW2 N/A  
#GOLDENDALE 4W N/A 46 26 45 W15 29.83S WCI 40  
#GOODNOE HILLS N/A 47 43 86 N12 N/A WCI 42  
#LYLE 6NE N/A 43 41 93 SW13 29.78R WCI 36  
#PITT 4SE N/A 40 39 96 W15 29.83R WCI 32  

 
 
WAZ026-261610-  
KITTITAS VALLEY  
 
CITY SKY/WX TMP DP RH WIND PRES REMARKS
 
ELLENSBURG AP CLOUDY 46 38 73 W7 29.76R  
#ELLENSBURG CWU N/A 44 38 79 NW5 29.70R  
#ELLENSBURG 3NE N/A 44 38 79 N1 27.85R  
#ELLENSBURG 1E N/A 44 N/A N/A CALM N/A  
#ELLENSBURG 13S N/A 43 40 89 CALM N/A  
#KITTITAS 4N N/A 44 34 68 NW10 29.77R  
#KITTITAS 3S N/A 44 39 82 S3 29.74R  
#THORP 6N N/A 41 36 82 W3 29.77R  

 
 
WAZ027-261610-  
YAKIMA VALLEY  
 
CITY SKY/WX TMP DP RH WIND PRES REMARKS
 
SUNNYSIDE AP CLOUDY 45 42 89 CALM 29.78R  
YAKIMA AIRPORT CLOUDY 45 40 82 CALM 29.78R  
YAKIMA-VAGABOND MOCLDY 42 38 86 E6 29.75R  
#DONALD 2NE N/A 48 30 49 N1 28.63R  
#GRANDVIEW N/A 47 39 74 W1 29.78R  
#MABTON N/A 54 39 57 W8 29.76R  
#MOXEE 2E N/A 42 0 17 CALM 29.75R  
#NACHES 2SW N/A 47 37 68 SW8 29.72S  
#TERRACE HTS N/A 45 40 82 CALM 29.75R  
#TOPPENISH N/A 46 41 83 CALM 29.70R  
#WEST VALLEY N/A 43 39 86 CALM 29.76R  
#W YAKIMA N/A 44 40 86 S1 29.78R  
#WHITE SWAN 5E N/A 51 39 63 CALM 29.76R  
#WILEY CITY 3W N/A 43 38 82 CALM 29.74R  

 
 
WAZ028-261610-  
LOWER COLUMBIA BASIN...WASHINGTON  
 
CITY SKY/WX TMP DP RH WIND PRES REMARKS
 
HANFORD CLOUDY 47 43 86 SW6 29.74R  
PASCO CLOUDY 53 43 69 SW13 29.77R  
PROSSER AWOS N/A 52 41 66 W6 29.80R  
RICHLAND AWOS CLOUDY 52 46 80 SW7 29.78R  
#BENTON CITY N/A 49 42 77 CALM 29.67S  
#CONNELL 5N N/A 49 45 86 SW7 29.73R  
#CONNELL 5NW N/A 49 45 86 SW10 29.69R  
#ELTOPIA 6NW N/A 49 44 83 CALM 28.73R  
#KAHLOTUS N/A 48 43 83 W22 29.72S WCI 41  
#KENNEWICK 3S N/A 49 44 83 SW5 29.76R  
#PATERSON N/A 51 46 83 N6 29.78R  
#SAGEMOOR 2W N/A 49 43 80 W7 29.61S  
#TOUCHET 2S N/A 52 45 77 SW10 29.75R  
#WEST PASCO N/A 53 44 71 SW5 29.75R  

 
 
WAZ029-261610-  
FOOTHILLS OF THE BLUES...WASHINGTON  
 
CITY SKY/WX TMP DP RH WIND PRES REMARKS
 
WALLA WALLA AP MOCLDY 52 44 74 S14 29.77S  
#CLYDE 6NW N/A 48 43 83 W12 29.74R WCI 43  
#DAYTON SCHOOL N/A 51 36 56 S8 29.78F  
#LOWDEN 2SE N/A 53 46 77 W12 29.74R  
#PLEASANT VIEW 1N/A 47 44 89 S10 29.78R  
#PRESCOTT N/A 52 47 83 SW2 29.75R  
#WHITMAN COLLEGEN/A 52 44 74 S10 29.81F  
#WAITSBURG 5S N/A 49 44 83 S8 29.86S  
#WALLA WALLA 5E N/A 51 44 77 S17 N/A  
#WALLA WALLA U N/A 54 46 74 SW2 29.77  
#WHITMAN MISSIONN/A 54 46 74 S7 29.78S  

 
 
WAZ030-261610-  
BLUE MOUNTAINS...WASHINGTON  
 
CITY SKY/WX TMP DP RH WIND PRES REMARKS
 
#DIXIE 5SE N/A 44 38 79 SW15G24 29.68F WCI 37  

 
 
ORZ009-041-WAZ024-261610-  
COLUMBIA RIVER GORGE  
 
CITY SKY/WX TMP DP RH WIND PRES REMARKS
 
THE DALLES AP CLOUDY 51 43 74 W14 29.82R  
#ARLINGTON AIRPON/A 48 44 86 W7 29.82R  
#CELILO DOT N/A 51 42 71 SW7 N/A  
#LYLE N/A 49 44 83 W16 29.85R WCI 43  
#MOSIER 1S N/A 45 36 70 CALM 29.82R  
#MURDOCK N/A 50 43 77 NW10 29.80R  
#RUFUS DOT N/A 52 43 71 W14 N/A  
#SMITHVILLE N/A 50 45 83 W14 29.78R  
 

 
 
ORZ510-261610-  
NORTH CENTRAL OREGON  
 
CITY SKY/WX TMP DP RH WIND PRES REMARKS
 
#ANTELOPE N/A 43 41 93 CALM 29.67S  
#CHENOWITH 1W N/A 42 39 89 NW26 N/A WCI 32  
#COW CYN RST AREN/A 42 42 100 SW6 N/A  
#DUFUR N/A 46 42 86 W1 29.79R  
#DUFUR 9E N/A 43 41 93 NW6 29.86R  
#GRASS VALLEY 1SN/A 44 41 89 W5 29.95R  
#KENT DOT N/A 42 36 79 N9 N/A  
#MAUPIN SCHOOL N/A 51 41 68 SW6 29.86R  
#MORO SCHOOL N/A 45 45 100 NW6 29.90R  
#SHANIKO 4NW N/A 41 38 89 W10 29.78S  
#TYGH VALLEY 2NEN/A 50 41 71 N6 29.79R  
#WAPANITIA AIRPON/A 46 40 79 W9 29.83R  
#WASCO 5NE N/A 45 41 86 W7 29.80R  

 
 
ORZ511-261610-  
CENTRAL OREGON  
 
CITY SKY/WX TMP DP RH WIND PRES REMARKS
 
BEND AIRPORT MOCLDY 45 36 70 SW15 29.80F WCI 38  
MADRAS AIRPORT CLOUDY 45 36 70 S7 29.82F  
PRINEVILLE AP MOCLDY 43 41 93 CALM 29.80F  
REDMOND AIRPORT LGT RAIN 43 37 79 NW5 29.81S  
#ASHWOOD SCHOOL N/A 44 42 93 CALM 29.78S  
#BEND 1SW N/A 41 38 89 SW2 N/A  
#BEND-AWBREY N/A 43 38 82 S3 29.79F  
#BEND-KIM LN N/A 44 41 89 E3 29.73F  
#CULVER N/A 45 37 73 W7 29.72F  
#CULVER 8W N/A 45 35 68 W5 29.83F  
#LAKE BILLY CHINN/A 45 N/A N/A SE6 29.90S  
#MADRAS 4S N/A 46 5 18 CALM 29.90F  
#POWELL BUTTE N/A 42 39 89 CALM 29.79F  
#PRINEVILLE N/A 43 41 93 CALM 29.89S  
#PRINEVILLE 3N N/A 44 40 86 W3 29.80F  
#WARM SPRINGS N/A 46 44 93 CALM 29.78S  
 

 
 
 
ORZ509-261610-  
EAST SLOPES OF OREGON CASCADES  
 
CITY SKY/WX TMP DP RH WIND PRES REMARKS
 
SISTERS AWOS N/A 43 37 79 N8 29.79S  
#BLUE BOX PASS N/A 33 N/A N/A NW8 N/A  
#CAMP SHERMAN N/A 41 36 82 SW1 29.88F  
#LA PINE 4NW N/A 38 34 85 CALM 29.88F  
#LAVA BUTTE DOT N/A 37 34 89 CALM N/A  
#SISTERS 3N N/A 43 34 70 CALM 29.82F  
#TUMALO 3W N/A 43 39 86 E2 29.68F  
#WANOGA BUTTE D N/A 33 31 92 W8 N/A  
 

 
 
ORZ044-261610-  
LOWER COLUMBIA BASIN...OREGON  
 
CITY SKY/WX TMP DP RH WIND PRES REMARKS
 
HERMISTON LGT RAIN 51 47 86 SW13 29.78R  
#BOARDMAN SCHOOLN/A 52 45 77 W9 29.79R  
#BOARDMAN 8SW N/A 50 46 86 SW13 29.79R  
#ECHO 8SW N/A 51 48 89 W12 29.80S  
#I-84 EX 198 DOTN/A 50 44 80 E14 N/A  
#IONE SCHOOL N/A 48 31 51 W5 29.81R  

 
 
ORZ507-261610-  
NORTHERN FOOTHILLS OF THE BLUES  
 
CITY SKY/WX TMP DP RH WIND PRES REMARKS
 
PENDLETON AIRPT CLOUDY 49 45 86 S5 29.78S  
#ADAMS 3WNW N/A 48 44 86 SW3 29.78S  
#ATHENA N/A 49 44 83 CALM 29.81F  
#CAYUSE N/A 49 44 83 CALM 29.78  
#HELIX SCHOOL N/A 48 44 86 SW8 29.77S  
#HELIX 3N N/A 47 43 86 SW12 29.76R WCI 42  
#HOLDMAN 5SE N/A 49 45 86 SW7 29.79R  
#HOLDMAN 6E N/A 47 44 89 SW9 29.59R  
#M-F FERNDALE N/A 52 43 71 CALM 29.76F  
#M-F GROVE ELEM N/A 52 42 69 S5 29.76F  
#M-FREEWATER 5SEN/A 51 42 71 SW9 29.79F  
#PENDLETON DNTN N/A 48 45 89 CALM 29.78S  
#PDT AQUATIC CTRN/A 50 45 83 CALM 29.82S  
#PDT SUNRIDGE N/A 49 45 86 CALM 29.80S  
#PENDLETON 7NW N/A 49 43 80 SW5 27.45S  
#PILOT ROCK 1S N/A 47 40 76 CALM 29.81S  
#PILOT ROCK N/A 47 43 86 W5 29.82R  
#TUTUILLA N/A 50 46 86 CALM 29.79F  
#UMAPINE 2E N/A 53 46 77 SW5 29.75S  
#WESTON SCHOOL N/A 48 39 71 W1 29.79F  
 

 
 
ORZ508-261610-  
SOUTHERN FOOTHILLS OF THE BLUES  
 
CITY SKY/WX TMP DP RH WIND PRES REMARKS
 
LEXINGTON LGT RAIN 48 45 89 SW13 29.84R WCI 43  
#AJAX N/A 44 35 70 S7 29.96R  
#CONDON SCHOOL N/A 0 -78 1 CALM 29.77R  
#CONDON 5W N/A 40 36 85 W10 29.76S  
#HEPPNER EOC N/A 44 40 86 W6 29.74R  
#HEPPNER 4NE N/A 42 39 89 W12 29.80R WCI 35  
#LEXINGTON 2SE N/A 49 43 80 W5 29.78R  
#MIKKALO N/A 46 42 86 NW6 29.92R  
#OLEX 4N N/A 47 45 93 W7 29.80R  
#RUGGS 5NE N/A 42 41 96 W10 29.94S  
#RUGGS 2SW N/A 43 40 89 W7 29.82R  
 

 
 
ORZ502-503-261610-  
BLUE MOUNTAINS  
 
CITY SKY/WX TMP DP RH WIND PRES REMARKS
 
MEACHAM LGT RAIN 42 38 86 CALM 29.77F  
#BATTLE MTN DOT N/A 38 37 96 SE2 N/A  
#GREENHORN 9SW N/A 37 37 100 CALM 26.02S  
#HARDMAN 10S N/A 38 35 89 NW2 29.94S  
#LADD CYN SMT N/A 40 39 96 SE12 N/A WCI 33  
#LADD CREEK ODOTN/A 42 40 93 S6 N/A  
#LONG CREEK HS N/A 41 40 96 CALM N/A  
#N POWDER DOT N/A 40 40 100 CALM N/A  
#PIKES PEAK N/A 41 37 86 N20G26 27.99S WCI 32  
#TOLLGATE N/A 34 33 96 SW5 29.65F  
#TROY SCHOOL N/A 45 42 89 CALM 29.61F  
#UKIAH N/A 40 38 92 CALM 29.74S  
#WESTON 4E N/A 42 40 93 SW7 29.76F  

 
 
ORZ505-261610-  
JOHN DAY BASIN  
 
CITY SKY/WX TMP DP RH WIND PRES REMARKS
 
JOHN DAY LGT DRIZZLE 43 40 89 CALM 29.81S  
#ANTELOPE 9ESE N/A 47 45 93 NE1 N/A  
#DAYVILLE SCHOOLN/A 45 41 86 CALM 29.79R  
#MITCHELL N/A 43 42 96 CALM 29.98R  
#MITCHELL 8NW N/A 40 37 89 SW1 29.82R  
#MONUMENT HS N/A 44 41 89 CALM 29.78S  
#MT. VERNON 5SE N/A 42 37 82 CALM 29.75F  
#SPRAY SCHOOL N/A 45 N/A N/A CALM N/A  

 
 
ORZ506-261610-  
OCHOCO AND JOHN DAY HIGHLANDS  
 
CITY SKY/WX TMP DP RH WIND PRES REMARKS
 
#HORSE RIDGE DO N/A 41 36 82 W6 N/A  
#PAULINA ODOT N/A 43 38 82 SW7 N/A  
#PINE MTN OBS N/A 32 31 96 SE6 N/A  
#PRAIRIE CITY N/A 41 40 96 CALM 29.97R  
#SENECA 9NW N/A 38 37 96 CALM 29.80F  

 
 
ORZ049-261610-  
GRANDE RONDE VALLEY  
 
CITY SKY/WX TMP DP RH WIND PRES REMARKS
 
LA GRANDE CLOUDY 45 45 100 CALM 29.78F  
#COVE N/A 46 44 93 E2 29.82F  
#COVE SCHOOL N/A 45 41 86 CALM 29.82F  
#COVE 6NW N/A 45 42 89 CALM 29.79F  
#ELGIN 3N N/A 45 43 93 NE1 29.77F  
#ELGIN 1E N/A 45 40 82 CALM N/A  
#IMBLER SCHOOL N/A 44 39 82 E3 29.76F  
#ISLAND CITY 4N N/A 46 45 96 CALM 29.89R  
#UNION 1S N/A 44 40 86 SE6 29.79F  

 
 
ORZ050-261610-  
WALLOWA COUNTY  
 
CITY SKY/WX TMP DP RH WIND PRES REMARKS
 
JOSEPH AIRPORT PTCLDY 41 37 86 W3 29.78F  
#IMNAHA SCHOOL N/A 49 42 77 SE6 29.80S  
#IMNAHA 10S N/A 41 39 93 SW2 29.80  
#JOSEPH 3N N/A 41 35 79 S2 29.83S  
#JOSEPH 3W N/A 39 39 100 CALM 29.64F  
#LOSTINE N/A 43 39 86 CALM 29.59F  
#LOSTINE 3SE N/A 42 40 93 CALM 29.81F  
#MT HOWARD 8000 N/A 26 22 85 SW1 29.73F  
#PROMISE 1S N/A 41 37 86 S6 29.85F  
#WALLOWA SCHOOL N/A 46 37 71 CALM 29.76F  
 

 
 
CLICK HERE TO GO TO PREVIOUS BULLETINS.

The Nexlab OR Page
The Nexlab WA Page Main Text Page